{"data":{"norad_id":50805,"epoch":"2026-05-24T19:04:55.878816Z","epoch_age_seconds":86764,"freshness":"FRESH","line1":"1 50805U 22001C   26144.79509119 -.00002002  00000+0 -10775-3 0  9999","line2":"2 50805  53.2134 177.4716 0000956  78.0088 282.1011 15.08835453242030","mean_motion":15.08835453,"eccentricity":9.56e-5,"inclination_deg":53.2134,"raan_deg":177.4716,"arg_perigee_deg":78.0088,"mean_anomaly_deg":282.1011,"bstar":-0.00010775,"rev_number":24203,"period_min":95.437842286703,"perigee_km":539.09593666508,"apogee_km":540.41863805282,"semimajor_km":6917.894287359,"source":"CELESTRAK","updated_at":"2026-05-25T13:38:16.874571Z"}}